Home > Time Zones > World Clock > Weather > Ghana > Accra > Past weeks

Flag for Ghana Weather past 2 weeks in Accra, Ghana

Now
81 °F

Passing clouds.


Feels Like: 86 °F
Forecast: 77 / 90 °F
Wind: 5 mph from Southwest

Location: Accra Airport

Current Time: Dec 20, 2014 at 2:29:19 AM

Latest Report: Dec 20, 2014 at 1:00 AM


Visibility: N/A

Pressure: 29.92 "Hg

Humidity: 84%

Dew point: 75 °F

Location of AccraLocation

Historic Weather in Accra — Graph

°F

Accra temperature yesterday

Maximum temperature yesterday: 90 °F (at 12:00 PM)
Minimum temperature yesterday: 77 °F (at 6:00 AM)
Average temperature yesterday: 83 °F

Past Weeks' High & Low Weather Summary

 TemperatureHumidityPressure
High90 °F (Dec 10, 12:00 PM)100% (Dec 16, 5:00 AM)29.95 "Hg (Dec 16, 5:00 AM)
Low77 °F (Dec 6, 3:00 AM)52% (Dec 14, 11:00 AM)29.77 "Hg (Dec 8, 4:00 PM)
Average82 °F82%29.86 "Hg
* Reported Dec 5 1:00 AM — Dec 20 1:00 AM, Accra, Weather by CustomWeather, © 2014

Note: Actual official high and low records may vary slightly from our data, if they occured in-between our weather recording intervals... More about our weather records

Advertising

Accra weather history for previous 24 hours

 ConditionsComfort  
Time TempWeatherWind HumidityBarometerVisibility
1:00 AM
Dec 20
81 °FPassing clouds.5 mph84%29.92 "HgN/A
12:00 AM82 °FPassing clouds.6 mph79%29.92 "HgN/A
11:00 PM
Dec 19
82 °FPassing clouds.7 mph84%29.95 "HgN/A
10:00 PM82 °FPassing clouds.7 mph79%29.95 "HgN/A
9:00 PM82 °FPassing clouds.6 mph79%29.95 "HgN/A
8:00 PM82 °FOvercast.8 mph79%29.92 "HgN/A
7:00 PM82 °FPassing clouds.9 mph79%29.89 "HgN/A
6:00 PM82 °FPassing clouds.12 mph79%29.86 "HgN/A
5:00 PM82 °FScattered clouds.10 mph79%29.86 "HgN/A
4:00 PM86 °FPassing clouds.10 mph66%29.83 "HgN/A
3:00 PM88 °FPassing clouds.10 mph59%29.83 "HgN/A
2:00 PM88 °FPassing clouds.9 mph59%29.86 "Hg6 mi
1:00 PM90 °FBroken clouds.8 mph55%29.86 "Hg6 mi
12:00 PM90 °FPartly sunny.7 mph59%29.89 "HgN/A
11:00 AM88 °FMostly cloudy.8 mph66%29.92 "HgN/A
10:00 AM84 °FMore clouds than sun.7 mph74%29.92 "HgN/A
9:00 AM82 °FPartly sunny.10 mph84%29.92 "Hg6 mi
8:00 AM81 °FFog.8 mph89%29.92 "Hg2 mi
7:00 AM77 °FFog.6 mph94%29.89 "Hg2 mi
6:00 AM77 °FOvercast.7 mph94%29.86 "HgN/A
5:00 AM79 °FOvercast.6 mph89%29.86 "HgN/A
4:00 AM79 °FOvercast.7 mph89%29.86 "Hg6 mi
Weather by CustomWeather, © 2014

See weather overviewHow to use our weather pages